Eureka, Nunavut

4:08 PM CDT on October 19, 2017 (GMT -0500)
Eureka

Weather History for CWEU - January, 2013

Change the Weather History Date:

Saturday, January 26, 2013

  Actual Average Record
Temperature  
Mean Temperature -38 °F -  
Max Temperature -36 °F -31 °F -9 °F (2006)
Min Temperature -40 °F -44 °F -56 °F (2000)
Degree Days  
Heating Degree Days 103    
Moisture  
Dew Point -46 °F    
Average Humidity 65    
Maximum Humidity 74    
Minimum Humidity 47    
Precipitation  
Precipitation 0.00 in 0.00 in - ()
Sea Level Pressure  
Sea Level Pressure 29.82 in    
Wind  
Wind Speed 0 mph ()    
Max Wind Speed 2 mph    
Max Gust Speed -    
Visibility 15.0 miles    
Events Snow    
Averages and records for this station are not official NWS values.
T = Trace of Precipitation, MM = Missing Value Source: Averaged Metar Reports

Daily Weather History Graph

Daily Weather History Graph

Search for Another Location

Airport or City:

Trip Planner

Search our weather history database for the weather conditions in past years. The results will help you decide how hot, cold, wet, or windy it might be!

Date:

Astronomy

Dec. 31, 1969 Rise Set
Actual Time Sun does not rise Sun does not rise
Civil Twilight Sun does not rise Sun does not rise
Nautical Twilight 8:35 AM CST 3:19 PM CST
Astronomical Twilight 6:03 AM CST 5:52 PM CST
Moon No Moon Rise No Moon Set
Length of Visible Light 0h 00m
Length of Day
0h 00m
Full, 100% of the Moon is Illuminated
Jan 26
Full
Jan 26
Full
Feb 3
Last Quarter
Feb 10
New
Feb 17
First Quarter

Hourly Weather History & Observations

Time (CST) Temp. Dew Point Humidity Pressure Visibility Wind Dir Wind Speed Gust Speed Precip Events Conditions
12:00 AM -38 °F -46 °F 47% 29.90 in 15 mi Calm Calm - - Snow Snow
12:00 AM -38.2 °F -45.4 °F 67% 29.90 in 15.0 mi Calm Calm - N/A   Clear
1:00 AM -38.2 °F -45.4 °F 67% 29.90 in 15.0 mi Calm Calm - N/A   Clear
2:00 AM -38.2 °F -45.4 °F 67% 29.90 in 15.0 mi Calm Calm - N/A   Clear
3:00 AM -38.2 °F -45.4 °F 67% 29.90 in 15.0 mi ENE 2.3 mph - N/A   Clear
4:00 AM -38.2 °F -45.4 °F 67% 29.89 in 15.0 mi Calm Calm - N/A   Clear
5:00 AM -40.0 °F -47.2 °F 67% 29.88 in 15.0 mi Calm Calm - N/A   Clear
6:00 AM -39 °F -46 °F 48% 29.86 in 15 mi Calm Calm - - Snow Snow
6:00 AM -40.0 °F -45.4 °F 74% 29.86 in 15.0 mi Calm Calm - N/A   Clear
7:00 AM -38.2 °F -45.4 °F 67% 29.85 in 15.0 mi Calm Calm - N/A   Clear
8:00 AM -38.2 °F -45.4 °F 67% 29.84 in 15.0 mi Calm Calm - N/A   Clear
9:00 AM -38.2 °F -45.4 °F 67% 29.83 in 15.0 mi Calm Calm - N/A   Clear
10:00 AM -40.0 °F -47.2 °F 67% 29.82 in 15.0 mi Calm Calm - N/A   Clear
11:00 AM -38.2 °F -45.4 °F 67% 29.82 in 15.0 mi Calm Calm - N/A   Clear
12:00 PM -39 °F -46 °F 47% 29.81 in 15 mi Calm Calm - - Snow Snow
12:00 PM -40.0 °F -47.2 °F 67% 29.81 in 15.0 mi Calm Calm - N/A   Clear
1:00 PM -40.0 °F -47.2 °F 67% 29.80 in 15.0 mi Calm Calm - N/A   Clear
2:00 PM -40.0 °F -47.2 °F 67% 29.79 in 15.0 mi Calm Calm - N/A   Clear
3:00 PM -40.0 °F -47.2 °F 67% 29.78 in 15.0 mi Calm Calm - N/A   Clear
4:00 PM -40.0 °F -47.2 °F 67% 29.77 in 15.0 mi Calm Calm - N/A   Clear
5:00 PM -40.0 °F -45.4 °F 74% 29.77 in 15.0 mi East 2.3 mph - N/A   Clear
6:00 PM -39 °F -46 °F 49% 29.76 in 15 mi Calm Calm - - Snow Snow
6:00 PM -40.0 °F -45.4 °F 74% 29.76 in 15.0 mi Calm Calm - N/A   Clear
7:00 PM -38.2 °F -45.4 °F 67% 29.75 in 15.0 mi Calm Calm - N/A   Clear
8:00 PM -40.0 °F -47.2 °F 67% 29.75 in 15.0 mi Calm Calm - N/A   Clear
9:00 PM -40.0 °F -47.2 °F 67% 29.75 in 15.0 mi Calm Calm - N/A   Clear